Location: Unspecified
(0.0000°N, 0.0000°E)
Time: 16:29:09
(UTC+00:00)

A-11 Canister half - All Passes

Search period start: 29 June 2016 00:00
Search period end: 09 July 2016 00:00
Orbit: 1517 x 1683 km, 47.2° (Epoch: 28 June)

Date Brightness Start Highest point End Pass type
(mag) Time Alt. Az. Time Alt. Az. Time Alt. Az.
29 Jun - 01:41:24 10° N 01:48:11 22° NE 01:54:54 10° E visible
29 Jun - 03:43:48 10° NW 03:52:59 72° SW 04:02:16 10° SSE visible
29 Jun - 05:55:02 10° WSW 05:58:16 12° SW 06:01:31 10° SSW daylight
29 Jun - 14:29:30 10° SSW 14:39:16 53° SE 14:49:00 10° NE daylight
29 Jun - 16:35:14 10° WSW 16:44:10 35° NW 16:53:05 10° NNE daylight
30 Jun - 01:18:53 10° N 01:25:15 20° NE 01:31:33 10° E visible
30 Jun - 03:20:52 10° NW 03:30:07 78° SW 03:39:25 10° SE visible
30 Jun - 05:31:07 10° WSW 05:35:17 14° SW 05:39:30 10° SSW visible
30 Jun - 14:06:42 10° SSW 14:16:20 48° SE 14:25:57 10° ENE daylight
30 Jun - 16:12:04 10° WSW 16:21:13 39° NW 16:30:21 10° NNE daylight
01 Jul - 00:56:25 10° N 01:02:18 18° NE 01:08:08 10° E visible
01 Jul - 02:57:57 10° NW 03:07:14 85° SW 03:16:33 10° SE visible
01 Jul - 05:07:25 10° WSW 05:12:18 15° SW 05:17:16 10° SSW visible
01 Jul - 13:43:55 10° SSW 13:53:23 44° SE 14:02:50 10° ENE daylight
01 Jul - 15:48:55 10° WSW 15:58:17 42° NW 16:07:37 10° NNE daylight
02 Jul - 00:34:00 10° N 00:39:21 16° NE 00:44:38 10° E visible
02 Jul - 02:35:03 10° NW 02:44:22 89° NE 02:53:40 10° SE visible
02 Jul - 04:43:51 10° W 04:49:20 17° SW 04:54:55 10° S visible
02 Jul - 13:21:10 10° SSW 13:30:26 41° SE 13:39:43 10° ENE daylight
02 Jul - 15:25:48 10° WSW 15:35:19 46° NW 15:44:51 10° NNE daylight
03 Jul - 00:11:41 10° NNE 00:16:22 15° NE 00:21:01 10° ENE visible
03 Jul - 02:12:10 10° NW 02:21:29 82° NE 02:30:46 10° SE visible
03 Jul - 04:20:22 10° W 04:26:23 19° SW 04:32:29 10° S visible
03 Jul - 12:58:26 10° SSW 13:07:29 37° SE 13:16:34 10° ENE daylight
03 Jul - 15:02:43 10° WSW 15:12:23 50° NW 15:22:04 10° NNE daylight
03 Jul - 23:49:31 10° NNE 23:53:24 13° NE 23:57:15 10° ENE visible
04 Jul - 01:49:18 10° NW 01:58:36 76° NE 02:07:51 10° SE night (unlit)
04 Jul - 03:56:59 10° W 04:03:26 21° SW 04:09:59 10° S visible
04 Jul - 12:35:44 10° SSW 12:44:32 34° SE 12:53:23 10° ENE daylight
04 Jul - 14:39:40 10° SW 14:49:26 54° NW 14:59:15 10° NNE daylight
04 Jul - 23:27:37 10° NNE 23:30:24 11° NE 23:33:11 10° ENE visible
05 Jul - 01:26:27 10° NNW 01:35:44 70° NE 01:44:55 10° SE night (unlit)
05 Jul - 03:33:39 10° W 03:40:30 23° SW 03:47:27 10° S visible
05 Jul - 12:13:03 10° S 12:21:35 31° SE 12:30:09 10° ENE daylight
05 Jul - 14:16:38 10° SW 14:26:30 59° NW 14:36:25 10° NNE daylight
05 Jul - 23:06:58 10° NE 23:07:24 10° NE 23:07:50 10° NE visible
06 Jul - 01:03:37 10° NNW 01:12:51 64° NE 01:21:58 10° SE night (unlit)
06 Jul - 03:10:21 10° W 03:17:35 26° SW 03:24:52 10° S visible
06 Jul - 11:50:24 10° S 11:58:37 29° SE 12:06:54 10° ENE daylight
06 Jul - 13:53:38 10° SW 14:03:34 64° NW 14:13:35 10° NNE daylight
06 Jul - 16:06:31 10° WNW 16:09:13 11° NW 16:11:54 10° NNW daylight
07 Jul - 00:40:48 10° NNW 00:49:58 59° NE 00:58:59 10° SE visible
07 Jul - 02:47:07 10° WNW 02:54:40 28° SW 03:02:15 10° S night (unlit)
07 Jul - 11:27:47 10° S 11:35:39 26° SE 11:43:35 10° E daylight
07 Jul - 13:30:38 10° SW 13:40:38 69° NW 13:50:44 10° NNE daylight
07 Jul - 15:42:12 10° WNW 15:46:10 13° NW 15:50:09 10° NNW daylight
08 Jul - 00:17:59 10° NNW 00:27:04 54° NE 00:36:01 10° SE visible
08 Jul - 02:23:54 10° WNW 02:31:45 31° SW 02:39:37 10° S night (unlit)
08 Jul - 11:05:12 10° S 11:12:41 24° SE 11:20:14 10° E daylight
08 Jul - 13:07:40 10° SW 13:17:41 75° NW 13:27:51 10° NE daylight
08 Jul - 15:18:16 10° WNW 15:23:09 14° NW 15:28:03 10° NNW daylight
